#timestamp,LO_Frequency,Hit,StdDev 
1547906415.8,286047001.4,N
1547906435.6,286047002.6,N
1547906455.5,286047002.8,N
1547906475.3,286047000.7,N
1547906495.1,286047002.0,N
1547906515.9,286047001.8,N
1547906535.7,286046999.9,N
1547906555.5,286047002.0,N
1547906575.4,286047003.7,N
1547906595.2,286047004.1,Y
1547906615.1,286047001.2,P
1547906616.0,286047001.2,N
1547906635.8,286046999.3,N
1547906655.6,286046996.6,Y
1547906675.5,286046999.6,P
1547906695.3,286046999.3,N
1547906715.2,286046999.6,N
1547906735.0,286046997.4,Y
1547906735.9,286046997.4,P
1547906755.7,286046998.3,N
1547906775.6,286046998.5,N
1547906795.4,286047000.0,N
1547906815.3,286047000.4,N
1547906835.1,286047001.8,N
1547906855.8,286047002.4,N
1547906875.7,286047002.8,N
1547906895.5,286047001.1,N
1547906915.4,286046999.5,N
1547906935.2,286046996.8,N
1547906955.0,286046998.7,N
1547906955.9,286046998.7,N
1547906975.8,286046998.6,N
1547906995.6,286047002.7,N
1547907015.4,286047002.1,N
1547907035.3,286046998.9,N
1547907055.1,286047001.2,N
1547907075.9,286046997.0,N
1547907095.7,286046998.4,N
1547907115.5,286047002.7,N
1547907135.4,286046998.4,N
1547907155.2,286046999.5,N
1547907175.0,286047000.6,N
1547907175.9,286047000.6,N
1547907195.8,286046999.6,N
1547907215.6,286046998.6,N
1547907235.5,286046998.6,N
1547907255.3,286046998.8,N
1547907275.1,286046998.1,N
1547907295.9,286046998.2,N
1547907315.7,286046999.6,N
1547907335.5,286046999.6,N
1547907355.4,286047002.5,N
1547907375.2,286047001.7,N
1547907395.1,286047000.8,N
1547907396.0,286047000.8,N
1547907415.8,286047002.8,N
1547907435.6,286047004.3,N
1547907455.5,286047000.0,N
1547907475.3,286046999.7,N
1547907495.2,286047000.2,N
1547907515.9,286047002.6,N
1547907535.7,286046999.8,N
1547907555.6,286047001.0,N
1547907575.4,286047000.8,N
1547907595.2,286047004.1,N
1547907615.1,286047003.2,N
1547907616.0,286047003.2,N
1547907635.8,286047002.0,N
1547907655.7,286046999.7,N
1547907675.5,286047001.8,N
1547907695.3,286047001.2,N
1547907715.2,286046999.4,N
1547907735.0,286046998.7,N
1547907735.9,286046998.7,N
1547907755.8,286046997.1,N
1547907775.6,286046997.6,N
1547907795.4,286046997.8,N
1547907815.3,286047000.6,N
1547907835.1,286047002.1,N
1547907855.8,286047002.0,N
1547907875.7,286047003.5,N
1547907895.5,286046999.8,N
1547907915.4,286046999.4,N
1547907935.2,286047001.2,N
1547907955.0,286047000.5,N
1547907955.9,286047000.5,N
1547907975.8,286047000.6,N
1547907995.6,286046997.4,N
1547908015.4,286046996.7,N
1547908035.3,286046998.2,N
1547908055.1,286046998.9,N
1547908075.9,286047000.3,N
1547908095.7,286047000.7,N
1547908115.5,286046999.6,N
1547908135.4,286046993.9,Y
1547908155.2,286046995.5,P
1547908175.1,286046997.4,N
1547908176.0,286046997.4,N
1547908195.8,286046996.6,N
1547908215.6,286046995.6,N
1547908235.5,286046994.0,Y
1547908255.3,286046998.6,P
1547908275.1,286047001.1,N
1547908295.9,286047000.5,N
1547908315.7,286046999.8,N
1547908335.6,286047002.6,N
1547908355.4,286046999.8,N
1547908375.2,286046999.1,N
1547908395.1,286046998.3,N
1547908396.0,286046998.3,N
1547908415.8,286046999.1,N
1547908435.6,286046999.0,N
1547908455.5,286046998.8,N
1547908475.3,286047000.3,N
1547908495.2,286047000.0,N
1547908515.9,286046998.5,N
1547908535.7,286046996.9,N
1547908555.6,286046999.4,N
1547908575.4,286047001.0,N
1547908595.2,286046998.5,N
1547908615.1,286046998.7,N
1547908616.0,286046998.7,N
1547908635.8,286046998.5,N
1547908655.7,286046999.1,N
1547908675.5,286046999.0,N
1547908695.3,286046998.1,N
1547908715.2,286047000.6,N
1547908735.0,286047000.9,N
1547908735.9,286047000.9,N
1547908755.8,286046999.0,N
1547908775.6,286046998.7,N
1547908795.4,286046996.8,N
1547908815.3,286046996.6,N
1547908835.1,286046998.7,N
1547908855.8,286046999.1,N
1547908875.7,286046999.5,N
1547908895.5,286046996.9,N
1547908915.4,286046999.6,N
1547908935.2,286046996.7,N
1547908955.0,286046997.2,N
1547908955.9,286046997.2,N
1547908975.8,286046996.8,N
1547908995.6,286046996.5,N
1547909015.4,286046998.1,N
1547909035.3,286047000.6,N
1547909055.1,286047001.1,N
1547909075.9,286046998.4,N
1547909095.7,286046994.9,Y
1547909115.5,286046999.1,P
1547909135.4,286046999.8,N
1547909155.2,286047002.1,P
1547909175.1,286047000.0,N
1547909176.0,286047000.0,N
1547909195.8,286047000.1,N
1547909215.6,286046999.7,N
1547909235.5,286047002.2,N
1547909255.3,286047005.9,Y
1547909275.2,286047003.8,P
1547909295.9,286047000.2,N
1547909315.7,286047001.5,N
1547909335.6,286047001.3,N
1547909355.4,286047001.9,N
1547909375.2,286047001.7,N
1547909395.1,286047001.0,N
1547909396.0,286047001.0,N
1547909415.8,286046998.8,N
1547909435.7,286046997.4,N
1547909455.5,286046998.7,N
1547909475.3,286046999.6,N
1547909495.2,286046995.7,N
1547909515.0,286046995.6,N
1547909515.9,286046995.6,N
1547909535.8,286046994.9,N
1547909555.6,286046997.2,N
1547909575.4,286046999.1,N
1547909595.3,286046995.2,N
1547909615.1,286046995.3,N
1547909635.8,286046995.3,N
1547909655.7,286046998.3,N
1547909675.5,286047002.5,N
1547909695.4,286047000.1,N
1547909715.2,286046998.1,N
1547909735.0,286046997.0,N
1547909735.9,286046997.0,N
1547909755.8,286046995.0,N
1547909775.6,286046996.3,N
1547909795.4,286046996.0,N
1547909815.3,286046996.1,N
1547909835.1,286046993.8,N
1547909855.9,286046996.3,N
1547909875.7,286046995.4,N
1547909895.5,286046997.0,N
1547909915.4,286046999.0,N
1547909935.2,286047000.9,N
1547909955.1,286046998.7,N
1547909956.0,286046998.7,N
1547909975.8,286047000.7,N
1547909995.6,286046999.2,N
